Погода в Булавайо

Зимбабве     20°08′47″S   28°33′41″E
темп.,
°C
ветер,
м/с
пор.,
м/с
влажн.,
%
обл.,
%
осадки,
мм/ч
давл.,
гПа
погр.,
м
19 января, ср
ср1923:00+18вюв410772 0.0 1015449
02:00+16вюв410860 0.0 1015394
05:00+15вюв26892 0.0 1016147
08:00+20вюв45615 0.0 1016556
11:00+25вюв45423 0.0 10141545
14:00+29вюв45275 0.0 10112327
17:00+28вюв56280 0.0 10102469
20:00+22в411420 0.0 1013392
20 января, чт
чт2023:00+20в345098 0.0 101589
02:00+19в5125299 0.0 1015553
05:00+17вюв5116372 0.0 1016440
08:00+19вюв69605 0.0 1017538
11:00+25вюв674572 0.0 10151422
14:00+28юв57345 0.0 10122065
17:00+26юв67264 0.0 10112093
20:00+21вюв411370 0.0 1014446
21 января, пт
пт2123:00+19вюв4125052 0.0 1015439
02:00+17вюв513684 0.0 1015580
05:00+16в51169100 0.0 1016621
08:00+19вюв586321 0.0 1017704
11:00+24вюв57390 0.0 10161902
14:00+27юв682838 0.0 10132487
17:00+25вюв58321 0.0 10132380
20:00+20вюв512390 0.0 1016696
22 января, сб
сб2223:00+18вюв613462 0.0 1018717
02:00+16вюв513686 0.0 1017780
05:00+14вюв6138950 0.0 1019728
08:00+15вюв61076100 0.1 1020952
11:00+21вюв775355 0.1 10191452
14:00+24юв863826 0.1 10162382
17:00+22вюв783992 0.0 10161732
20:00+20вюв59483 0.0 10181048
23 января, вс
вс2323:00+16вюв613710 0.0 1020820
02:00+15вюв713720 0.0 1019795
05:00+13вюв613830 0.0 1020652
08:00+15вюв7117317 0.0 1021691
11:00+19вюв67602 0.0 1020965
14:00+23вюв644742 0.1 10171957
17:00+20вюв565999 0.1 10161223
20:00+17юв59755 0.1 1019623